Weather History for Sussex, NJ

Change the Weather History Date:

Wednesday, February 27, 2013

  Actual Average Record
Temperature  
Mean Temperature 40 °F -  
Max Temperature 46 °F 38 °F 64 °F (1976)
Min Temperature 33 °F 17 °F -14 °F (1963)
Degree Days  
Heating Degree Days 26    
Moisture  
Dew Point 36 °F    
Average Humidity 88    
Maximum Humidity 93    
Minimum Humidity 76    
Precipitation  
Precipitation 0.33 in - - ()
Sea Level Pressure  
Sea Level Pressure 29.63 in    
Wind  
Wind Speed 10 mph (NNE)    
Max Wind Speed 16 mph    
Max Gust Speed 25 mph    
Visibility 5 miles    
Events Rain    
Averages and records for this station are not official NWS values.
T = Trace of Precipitation, MM = Missing Value Source: NWS Daily Summary

Daily Weather History Graph

Daily Weather History Graph

Search for Another Location

Airport:

Trip Planner

Search our weather history database for the weather conditions in past years. The results will help you decide how hot, cold, wet, or windy it might be!

Date:

Astronomy

Feb. 27, 2013 Rise Set
Actual Time 6:35 AM EST 5:47 PM EST
Civil Twilight 6:07 AM EST 6:15 PM EST
Nautical Twilight 5:35 AM EST 6:47 PM EST
Astronomical Twilight 5:04 AM EST 7:19 PM EST
Moon 8:07 PM EST (2/27) 7:07 AM EST (2/27)
Length of Visible Light 12h 07m
Length of Day
11h 11m
Waning Gibbous, 96% of the Moon is Illuminated
Feb 27
Waning Gibbous
Mar 4
Last Quarter
Mar 11
New
Mar 19
First Quarter
Mar 27
Full

Hourly Weather History & Observations

Time (EST) Temp. Windchill Dew Point Humidity Pressure Visibility Wind Dir Wind Speed Gust Speed Precip Events Conditions
12:06 AM 33.8 °F 25.3 °F 28.4 °F 81% 29.90 in 6.0 mi NNE 11.5 mph 18.4 mph 0.01 in Rain Light Freezing Rain
12:13 AM 33.8 °F 25.3 °F 28.4 °F 81% 29.90 in 4.0 mi NNE 11.5 mph 23.0 mph 0.02 in Rain Light Freezing Rain
12:53 AM 33.1 °F 24.9 °F 30.0 °F 89% 29.89 in 4.0 mi NNE 10.4 mph 19.6 mph 0.11 in Rain Light Freezing Rain
1:02 AM 33.8 °F 25.8 °F 30.2 °F 87% 29.88 in 6.0 mi NNE 10.4 mph - 0.00 in Rain Light Freezing Rain
1:32 AM 33.8 °F 25.3 °F 30.2 °F 87% 29.86 in 8.0 mi NNE 11.5 mph 18.4 mph 0.02 in   Overcast
1:53 AM 33.1 °F 23.4 °F 30.0 °F 89% 29.86 in 5.0 mi NNE 13.8 mph 20.7 mph 0.03 in   Overcast
2:53 AM 34.0 °F 25.0 °F 30.9 °F 89% 29.81 in 4.0 mi NNE 12.7 mph 21.9 mph 0.02 in   Overcast
3:26 AM 33.8 °F 23.9 °F 30.2 °F 87% 29.76 in 4.0 mi NNE 15.0 mph 24.2 mph 0.01 in Rain Rain
3:53 AM 34.0 °F 24.6 °F 30.9 °F 89% 29.77 in 4.0 mi NNE 13.8 mph 23.0 mph 0.02 in   Overcast
4:53 AM 34.0 °F 23.8 °F 30.9 °F 89% 29.73 in 5.0 mi NNE 16.1 mph 25.3 mph 0.01 in   Overcast
5:23 AM 33.8 °F 24.3 °F 30.2 °F 87% 29.70 in 6.0 mi NNE 13.8 mph 25.3 mph 0.00 in   Overcast
5:53 AM 34.0 °F 24.6 °F 30.9 °F 89% 29.70 in 5.0 mi NNE 13.8 mph 23.0 mph 0.01 in   Overcast
6:53 AM 34.0 °F 24.6 °F 32.0 °F 92% 29.66 in 3.0 mi NNE 13.8 mph 20.7 mph 0.02 in   Overcast
7:02 AM 35.6 °F 26.2 °F 32.0 °F 87% 29.64 in 2.5 mi NNE 15.0 mph 25.3 mph 0.00 in   Overcast
7:30 AM 35.6 °F 26.2 °F 32.0 °F 87% 29.62 in 3.0 mi NNE 15.0 mph 23.0 mph 0.01 in   Overcast
7:44 AM 35.6 °F 25.9 °F 33.8 °F 93% 29.61 in 2.0 mi NNE 16.1 mph 21.9 mph 0.01 in   Overcast
7:53 AM 36.0 °F 27.1 °F 33.1 °F 89% 29.62 in 2.0 mi NNE 13.8 mph 23.0 mph 0.01 in   Overcast
8:27 AM 35.6 °F 27.5 °F 33.8 °F 93% 29.61 in 1.5 mi NNE 11.5 mph 19.6 mph 0.01 in Rain Light Rain
8:53 AM 37.0 °F 28.5 °F 35.1 °F 93% 29.61 in 1.8 mi NNE 13.8 mph 21.9 mph 0.03 in   Overcast
9:20 AM 37.4 °F 28.9 °F 35.6 °F 93% 29.58 in 2.5 mi NNE 13.8 mph 20.7 mph 0.01 in Rain Light Rain
9:25 AM 37.4 °F 28.9 °F 35.6 °F 93% 29.58 in 3.0 mi NNE 13.8 mph 23.0 mph 0.01 in Rain Light Rain
9:53 AM 39.0 °F 31.4 °F 36.0 °F 89% 29.58 in 3.0 mi NNE 12.7 mph 20.7 mph 0.01 in Rain Light Rain
9:59 AM 39.2 °F 31.2 °F 37.4 °F 93% 29.56 in 2.5 mi NNE 13.8 mph 20.7 mph 0.00 in Rain Light Rain
10:20 AM 39.2 °F 32.0 °F 37.4 °F 93% 29.55 in 3.0 mi NNE 11.5 mph - 0.00 in Rain Light Rain
10:23 AM 39.2 °F 33.0 °F 37.4 °F 93% 29.55 in 2.5 mi NNE 9.2 mph - 0.00 in Rain Light Rain
10:32 AM 39.2 °F 32.0 °F 37.4 °F 93% 29.54 in 2.5 mi North 11.5 mph - 0.00 in Rain Light Rain
10:43 AM 39.2 °F 32.0 °F 37.4 °F 93% 29.54 in 3.0 mi North 11.5 mph - 0.00 in Rain Light Rain
10:53 AM 41.0 °F 35.2 °F 37.9 °F 89% 29.55 in 4.0 mi North 9.2 mph - 0.01 in   Overcast
11:53 AM 42.1 °F 39.2 °F 39.9 °F 92% 29.54 in 8.0 mi NNW 4.6 mph - 0.00 in   Overcast
12:05 PM 42.8 °F 38.6 °F 39.2 °F 87% 29.51 in 8.0 mi NNE 6.9 mph - N/A   Overcast
12:53 PM 44.1 °F 39.5 °F 41.0 °F 89% 29.51 in 4.0 mi NE 8.1 mph - 0.01 in Rain Light Rain
1:45 PM 44.6 °F - 42.8 °F 93% 29.52 in 1.8 mi Calm Calm - 0.01 in Rain Light Rain
1:53 PM 44.1 °F 42.5 °F 41.0 °F 89% 29.53 in 1.8 mi SW 3.5 mph - 0.02 in Rain Light Rain
2:01 PM 44.6 °F - 42.8 °F 93% 29.52 in 2.0 mi Calm Calm - 0.01 in Rain Light Rain
2:09 PM 44.6 °F - 42.8 °F 93% 29.51 in 1.8 mi Calm Calm - 0.02 in Rain Light Rain
2:18 PM 44.6 °F - 42.8 °F 93% 29.51 in 2.5 mi Calm Calm - 0.02 in Rain Light Rain
2:24 PM 46.4 °F - 42.8 °F 87% 29.51 in 5.0 mi Calm Calm - 0.02 in Rain Light Rain
3:07 PM 44.6 °F - 42.8 °F 93% 29.52 in 2.0 mi Calm Calm - 0.01 in   Overcast
3:28 PM 44.6 °F - 42.8 °F 93% 29.52 in 3.0 mi Calm Calm - 0.01 in Rain Light Rain
3:53 PM 45.0 °F - 43.0 °F 93% 29.54 in 2.5 mi Calm Calm - 0.01 in Rain Light Rain
4:04 PM 44.6 °F 43.1 °F 41.0 °F 87% 29.54 in 8.0 mi Variable 3.5 mph - 0.00 in   Overcast
4:11 PM 44.6 °F 40.7 °F 39.2 °F 81% 29.54 in 8.0 mi West 6.9 mph - 0.00 in   Overcast
4:44 PM 44.6 °F 43.1 °F 39.2 °F 81% 29.55 in 10.0 mi WSW 3.5 mph - 0.00 in   Overcast
4:53 PM 44.1 °F 42.5 °F 39.0 °F 82% 29.56 in 10.0 mi WSW 3.5 mph - 0.00 in   Overcast
5:40 PM 42.8 °F - 35.6 °F 76% 29.58 in 10.0 mi Calm Calm - 0.01 in   Overcast
5:53 PM 42.1 °F 39.2 °F 35.1 °F 76% 29.60 in 10.0 mi SW 4.6 mph - 0.01 in   Overcast
6:53 PM 39.9 °F 36.7 °F 34.0 °F 79% 29.62 in 10.0 mi WSW 4.6 mph - N/A   Mostly Cloudy
7:10 PM 39.2 °F 37.0 °F 33.8 °F 81% 29.62 in 10.0 mi SSW 3.5 mph - N/A   Scattered Clouds
7:26 PM 39.2 °F - 33.8 °F 81% 29.62 in 10.0 mi Calm Calm - N/A   Mostly Cloudy
7:53 PM 39.0 °F 35.7 °F 34.0 °F 82% 29.63 in 10.0 mi SSW 4.6 mph - N/A   Overcast
8:53 PM 39.0 °F - 34.0 °F 82% 29.64 in 10.0 mi Calm Calm - N/A   Overcast
9:53 PM 36.0 °F - 33.1 °F 89% 29.65 in 10.0 mi Calm Calm - N/A   Scattered Clouds
10:53 PM 34.0 °F - 32.0 °F 92% 29.64 in 9.0 mi Calm Calm - N/A   Overcast
11:53 PM 34.0 °F - 32.0 °F 92% 29.62 in 7.0 mi Calm Calm - N/A   Overcast